Regional Weather Roundup
Issued by NWS Charleston, SC

Current Version | Previous Version | Graphics & Text | Print | Product List | Glossary On
Versions: 1 2 3 4 5 6 7 8 9 10 11 12 13 14 15 16 17 18 19 20 21 22 23 24 25 26 27 28 29 30 31 32 33 34 35 36 37 38 39 40 41 42 43 44 45 46 47 48 49 50
000
ASUS42 KCHS 022127
RWRCHS

REGIONAL WEATHER ROUNDUP
NATIONAL WEATHER SERVICE CHARLESTON SC
400 PM EST FRI DEC 02 2016

NOTE: "FAIR" INDICATES FEW OR NO CLOUDS BELOW 12,000 FEET WITH NO
SIGNIFICANT WEATHER AND/OR OBSTRUCTIONS TO VISIBILITY.

NOT ALL STATIONS ARE QUALITY CONTROLLED. USE DATA WITH CAUTION...
ESPECIALLY DEWPOINT OBSERVATIONS.

SCZ027-030-031-034>040-042>050-022200-
...SOUTHEAST SOUTH CAROLINA...

CITY           SKY/WX    TMP DP  RH WIND       PRES   REMARKS
N CHARLESTON   MOSUNNY   61  33  35 N12       30.14R
WATERFRONT PRK   N/A     61  38  42 NW5       30.12S
MOUNT PLEASANT FAIR      61  36  39 NW8       30.14R
JOHNS ISLAND   FAIR      61  36  39 NW8       30.14R
PINOPOLIS        N/A     57  37  47 N7        30.05S
MONCKS CORNER  FAIR      57  34  41 CALM      30.15R
SUMMERVILLE    FAIR      61  36  39 NW6       30.16R
BEAUFORT MCAS  SUNNY     62  36  37 NW9       30.15R
BEAUFORT ARPT  FAIR      61  37  41 NW7       30.15S
HILTON HEAD IS SUNNY     63  37  39 NW7       30.16R
WALTERBORO     CLEAR     61  32  33 NW5       30.16S
ALLENDALE      FAIR      61  34  36 VRB3      30.15S

...SOUTHERN MIDLANDS AND PEE DEE...

CITY           SKY/WX    TMP DP  RH WIND       PRES   REMARKS
GEORGETOWN     FAIR      57  34  41 NW6       30.14R
KINGSTREE      FAIR      57  32  38 W10       30.15R
ORANGEBURG     SUNNY     60  31  33 W9        30.15S
BARNWELL       NOT AVBL
AIKEN          FAIR      57  32  38 NW6       30.19S
MANNING        NOT AVBL
COLUMBIA       MOSUNNY   62  30  29 W9        30.15R
SUMTER         SUNNY     60  30  32 NW8       30.13R
FLORENCE       SUNNY     58  34  40 NW7       30.14R
MYRTLE BEACH   SUNNY     61  32  33 NW8       30.14S
N MYRTLE BEACH SUNNY     59  33  37 VRB6      30.11S

$$

GAZ063-065-086>088-099>101-113>116-118-119-134>141-150-022200-
...SOUTHEAST GEORGIA...

CITY           SKY/WX    TMP DP  RH WIND       PRES   REMARKS
SAVANNAH ARPT  MOSUNNY   62  34  35 NW10      30.16R
HUNTER AAF     SUNNY     63  42  46 NW10      30.13R
FORT STEWART   SUNNY     64  35  34 NW7       30.13S
STATESBORO     SUNNY     62  38  40 N6        30.17S
SYLVANIA       CLEAR    N/A N/A N/A N6        30.17F
CLAXTON        FAIR      63  37  38 W6        30.17R

...CSRA...CENTRAL AND FAR SOUTHEAST GEORGIA...

CITY           SKY/WX    TMP DP  RH WIND       PRES   REMARKS
THOMSON        SUNNY     63  32  31 CALM      30.21S
AUGUSTA-BUSH   SUNNY     63  30  28 N6        30.16S
AUGUSTA-DANIEL SUNNY     62  29  28 NW6       30.17S
SWAINSBORO     FAIR      63  30  29 N6        30.18R
VIDALIA        SUNNY     64  37  36 N10       30.17S
EASTMAN        FAIR      66 -17   3 N5        30.20S
HAZLEHURST     FAIR      64  32  29 N6        30.16S
ALMA           SUNNY     64  32  30 VRB6      30.16S
WAYCROSS       SUNNY     67  36  31 N12       30.16R
JESUP          FAIR      64  41  42 N7        30.16S
BAXLEY         FAIR      64  36  34 N6        30.16S
BRUNSWICK      SUNNY     64  41  42 NW6       30.15S
SAINT SIMONS   SUNNY     66  34  30 VRB5      30.14S

$$

SCZ027-028-034-036>038-045-046-048>050-GAZ119-141-022200-
...LAKE AND SUPPLEMENTAL COASTAL OBSERVATIONS...

STATION/POSITION TIME  TEMP    WIND        PRES    WAVE   SWELL
                       AIR SEA DIR/SP/G            HT/PER HT/PER/DIR
                 (UTC) (F)     (DEG/KT/KT) (MB)    (FT/S) (FT/S/D)
WINYAH BAY       2045   58     320/  6     1020.0S
LAKE MURRAY      2050   60     290/  7/ 14 1020.3S
ACE BASIN NERRS  2045   60     330/  3     1020.0S
FORT PULASKI     2100   61 63  340/  8/ 10 1021.0
SAPELO ISLAND    2100   65     340/  7     1021.0

$$

ANZ835-935-AMZ111-154-330-350-352-354-370-450-454-472-022200-
...C-MAN AND BUOY OBSERVATIONS...

STATION/POSITION TIME  TEMP    WIND        PRES    WAVE   SWELL
                       AIR SEA DIR/SP/G            HT/PER HT/PER/DIR
                 (UTC) (F)     (DEG/KT/KT) (MB)    (FT/S) (FT/S/D)
BUOY 41004       2050   59 74  350/ 12/ 16 1019.6R   4/ 5   2/130/ 9
BUOY 41008       2050   60 65  350/ 10/ 12 1020.7R   2/ 9   2/100/ 9
FOLLY BEACH CMAN 2100   60     340/  7/  9 1021.2R
CAPERS NEARSHORE 2108   59 63  310/ 12/ 16 1020.1S
FRIPP NEARSHORE  2108   60 64  330/ 10/ 14 1020.6R


STATION/POSITION TIME  TEMP    WIND        PRES    WAVE   SWELL
                       AIR SEA DIR/SP/G            HT/PER HT/PER/DIR
                 (UTC) (F)     (DEG/KT/KT) (MB)    (FT/S) (FT/S/D)
5E ST. MARYS GA  2100      67                N/A     2/ 9
FRYING PAN BUOY  2110   58 74  320/ 10/ 14 1019.5
BUOY 41025       2050   55 76  310/ 10/ 16 1018.2R   3/ 7   3/140/ 7
CAPE LOOKOUT NC  2100   57     290/ 10/ 13 1018.2S
BUOY 41002       2050   70 74  320/ 14/ 16 1016.8R   4/ 6   3/270/ 7
BUOY 41010       NOT AVBL
ST AUGUSTINE FL  2100   62 67  360/  8/  8 1021.5S


$$




USA.gov is the U.S. government's official web portal to all federal, state and local government web resources and services.